Back to catalog

FENGYUN 1C DEB

AliveLEO
NORAD 30121·DEBRIS·🇨🇳 China

Launched May 10, 1999 from Taiyuan Satellite Launch Center

Loading…

Next Passes (next 24 hours)

TLE

FreshSource: Space-Track

Epoch: Sep 14, 2026, 14:46 UTC

1 30121U 99025SA  26257.61545318  .00005992  00000-0  17687-2 0  9993
2 30121 102.1616  39.7686 0030431 159.2370 263.5149 14.43861647 15070

Track FENGYUN 1C DEB in real time with AllMySat

Download on the App Store